Hourly Data Report for October 04, 2019

All times are specified in Local Standard Time (LST). Add 1 hour to adjust for Daylight Saving Time where and when it is observed.

WOODSTOCK NEWBRIDGE
NEW BRUNSWICK
Current Station Operator: ECCC - MSC

46°09'08.000" N
67°32'34.000" W
154.00 m
8105603
71606
EWD

Download Data

Hourly Data (October 2019)
Hourly Data Report for October 4, 2019
TIME Temp Definition
°C
Dew Point Definition
°C
Rel Hum Definition
%
Wind Dir Definition
10's deg

Wind Spd Definition
km/h
Visibility Definition
km
Stn Press Definition
kPa
Hmdx Definition


Wind Chill Definition


Weather Definition


00:00 4.4 3.0 90 13 1   99.91     LegendNANA
01:00 4.7 2.0 82 12 1   99.84     LegendNANA
02:00 4.5 2.9 90 8 3   99.78     LegendNANA
03:00 4.2 3.1 93 0 1   99.73     LegendNANA
04:00 4.6 3.7 94 28 3   99.73     LegendNANA
05:00 4.4 3.9 96   0   99.70     LegendNANA
06:00 4.4 3.8 96 31 2   99.72     LegendNANA
07:00 4.3 3.6 96 31 3   99.72     LegendNANA
08:00 4.1 3.2 93 33 5   99.75     LegendNANA
09:00 4.5 3.4 93 1 6   99.74     LegendNANA
10:00 4.6 3.5 93 31 4   99.76     LegendNANA
11:00 4.8 3.4 91 30 7   99.78     LegendNANA
12:00 6.2 3.7 84 31 7   99.76     LegendNANA
13:00 7.3 2.7 73 31 12   99.74     LegendNANA
14:00 5.5 1.8 77 30 16   99.77     LegendNANA
15:00 7.0 1.1 66 29 14   99.78     LegendNANA
16:00 8.0 0.4 59 31 12   99.81     LegendNANA
17:00 6.3 -1.7 57 32 15   99.93     LegendNANA
18:00 5.8 -1.7 58 31 11   100.03     LegendNANA
19:00 4.7 -1.2 65 29 6   100.12     LegendNANA
20:00 3.4 -1.2 72 28 5   100.16     LegendNANA
21:00 1.3 -1.2 84 28 4   100.21     LegendNANA
22:00 -1.2 -2.2 93 0 1   100.26   -2 LegendNANA
23:00 0.4 -0.4 95 27 6   100.30     LegendNANA

Notes on Data Quality.

Legend

  • E = Estimated
  • M = Missing
  • NA = Not Available
Date modified: